Weather History for Tupelo, MS

Change the Weather History Date:

Saturday, December 8, 2012

  Actual Average Record
Temperature  
Mean Temperature 65 °F 46 °F  
Max Temperature 71 °F 55 °F 76 °F (1978)
Min Temperature 59 °F 36 °F 14 °F (2006)
Degree Days  
Heating Degree Days 0 20  
Month to date heating degree days 36 149  
Since 1 July heating degree days 655 671  
Cooling Degree Days 0 0  
Month to date cooling degree days 0 0  
Year to date cooling degree days 2202 2044  
Growing Degree Days 12 (Base 50)    
Moisture  
Dew Point 58 °F    
Average Humidity 82    
Maximum Humidity 97    
Minimum Humidity 66    
Precipitation  
Precipitation T in 0.22 in 2.55 in (1931)
Month to date precipitation 1.53 1.75  
Year to date precipitation 44.21 50.48  
Snow  
Snow 0.00 in 0.00 in 0.50 in (1937)
Month to date snowfall 0.0 0.0  
Since 1 July snowfall 0.0 0.0  
Snow Depth 0.00 in    
Sea Level Pressure  
Sea Level Pressure 29.94 in    
Wind  
Wind Speed 8 mph (SSW)    
Max Wind Speed 14 mph    
Max Gust Speed 17 mph    
Visibility 7 miles    
Events      
T = Trace of Precipitation, MM = Missing Value Source: NWS Daily Summary

Daily Weather History Graph

Daily Weather History Graph

Search for Another Location

Airport:

Trip Planner

Search our weather history database for the weather conditions in past years. The results will help you decide how hot, cold, wet, or windy it might be!

Date:

Astronomy

Dec. 08, 2012 Rise Set
Actual Time 6:49 AM CST 4:45 PM CST
Civil Twilight 6:21 AM CST 5:12 PM CST
Nautical Twilight 5:50 AM CST 5:44 PM CST
Astronomical Twilight 5:19 AM CST 6:14 PM CST
Moon 1:24 AM CST (12/8) 1:05 PM CST (12/8)
Length of Visible Light 10h 51m
Length of Day
9h 56m
Waning Crescent, 28% of the Moon is Illuminated
Dec 8
Waning Crescent
Dec 13
New
Dec 19
First Quarter
Dec 28
Full
Jan 4
Last Quarter

Hourly Weather History & Observations

Time (CST) Temp. Dew Point Humidity Pressure Visibility Wind Dir Wind Speed Gust Speed Precip Events Conditions
12:53 AM 59.0 °F 57.9 °F 96% 29.92 in 4.0 mi SSW 8.1 mph - N/A   Overcast
1:46 AM 60.8 °F 57.2 °F 88% 29.93 in 2.0 mi SSW 6.9 mph - N/A   Overcast
1:53 AM 60.1 °F 57.9 °F 93% 29.92 in 1.8 mi SSW 6.9 mph - N/A   Overcast
2:17 AM 59.0 °F 57.2 °F 94% 29.94 in 0.8 mi SSW 6.9 mph - N/A   Mist
2:53 AM 59.0 °F 57.9 °F 96% 29.94 in 0.5 mi SSW 6.9 mph - N/A   Mist
3:26 AM 59.0 °F 57.2 °F 94% 29.93 in 1.2 mi South 10.4 mph - N/A   Overcast
3:39 AM 59.0 °F 57.2 °F 94% 29.93 in 2.5 mi SSW 9.2 mph - N/A   Overcast
3:46 AM 59.0 °F 57.2 °F 94% 29.94 in 3.0 mi SW 6.9 mph - N/A   Overcast
3:53 AM 60.1 °F 57.9 °F 93% 29.93 in 4.0 mi SW 6.9 mph - N/A   Overcast
4:53 AM 60.1 °F 57.9 °F 93% 29.94 in 6.0 mi SSW 4.6 mph - N/A   Overcast
5:32 AM 60.8 °F 57.2 °F 88% 29.95 in 5.0 mi SSW 8.1 mph - N/A   Overcast
5:53 AM 60.1 °F 57.9 °F 93% 29.94 in 5.0 mi SSW 8.1 mph - N/A   Overcast
6:53 AM 60.1 °F 57.9 °F 93% 29.94 in 7.0 mi SSW 9.2 mph - N/A   Overcast
7:53 AM 61.0 °F 59.0 °F 93% 29.95 in 6.0 mi SSW 10.4 mph - N/A   Overcast
8:53 AM 63.0 °F 59.0 °F 87% 29.96 in 10.0 mi SSW 9.2 mph - N/A   Mostly Cloudy
9:15 AM 64.4 °F 59.0 °F 83% 29.97 in 10.0 mi SSW 9.2 mph - N/A   Scattered Clouds
9:53 AM 66.0 °F 59.0 °F 78% 29.97 in 10.0 mi SW 9.2 mph - N/A   Partly Cloudy
10:53 AM 68.0 °F 59.0 °F 73% 29.96 in 10.0 mi South 10.4 mph - N/A   Mostly Cloudy
11:53 AM 68.0 °F 57.9 °F 70% 29.94 in 10.0 mi SSE 8.1 mph - N/A   Partly Cloudy
12:53 PM 66.9 °F 59.0 °F 76% 29.92 in 10.0 mi South 9.2 mph - N/A   Mostly Cloudy
1:53 PM 69.1 °F 57.9 °F 68% 29.90 in 10.0 mi South 12.7 mph - N/A   Clear
2:53 PM 70.0 °F 57.9 °F 65% 29.89 in 10.0 mi South 8.1 mph - N/A   Scattered Clouds
3:53 PM 70.0 °F 57.9 °F 65% 29.89 in 10.0 mi South 6.9 mph - N/A   Mostly Cloudy
4:53 PM 66.9 °F 57.0 °F 70% 29.90 in 10.0 mi South 5.8 mph - N/A   Partly Cloudy
5:53 PM 64.9 °F 57.0 °F 75% 29.91 in 10.0 mi Calm Calm - N/A   Scattered Clouds
6:53 PM 62.1 °F 57.0 °F 84% 29.93 in 10.0 mi SSW 4.6 mph - N/A   Mostly Cloudy
7:53 PM 61.0 °F 57.0 °F 87% 29.94 in 10.0 mi SSW 5.8 mph - N/A   Partly Cloudy
8:53 PM 63.0 °F 59.0 °F 87% 29.94 in 10.0 mi SSW 9.2 mph - N/A   Partly Cloudy
9:53 PM 62.1 °F 60.1 °F 93% 29.95 in 10.0 mi SSW 10.4 mph - N/A   Partly Cloudy
10:01 PM 62.6 °F 60.8 °F 94% 29.95 in 10.0 mi SSW 8.1 mph - N/A   Scattered Clouds
10:15 PM 62.6 °F 60.8 °F 94% 29.95 in 10.0 mi SSW 9.2 mph - N/A   Mostly Cloudy
10:53 PM 62.1 °F 60.1 °F 93% 29.94 in 9.0 mi SSW 6.9 mph - 0.00 in   Overcast
11:53 PM 62.1 °F 60.1 °F 93% 29.94 in 8.0 mi South 6.9 mph - N/A   Overcast